KUIPER-00275

导读 | 豆包AI

KUIPER-00275是亚马逊柯伊伯(Project Kuiper)卫星星座的组成卫星,于2026年2月12日发射,发射任务在法国管辖的库鲁航天中心完成,归属于FR发射节点序列。柯伊伯星座计划部署超3200颗近地卫星,旨在提供全球宽带卫星互联网服务,该卫星发射后,助力亚马逊推进2026年中完成一半星座部署的目标,后续将为全球互联提供支撑。

基本信息
目录编号:
67793
目录名称:
KUIPER-00275
国际标识:
2026-030AF
轨道中心:
EARTH
卫星名称:
KUIPER-00275
卫星全名:
KUIPER-00275
卫星状态:
在轨 (已飞行30 天)
发射日期:
2026-02-12 UTC
国别 :
美国 (US)
星等 :
--
轨道信息
数据来源 国际轨道数据 AOE轨道数据
星历时间 2026-03-13T16:35:21+0800
1天前
查看轨道信息
2026-03-14T09:00:00+0800
14小时前
查看轨道信息
半长轴 6839.253km 6839.117km
偏心率 0.0009662 0.0009888
轨道倾角 51.883° 51.884°
近地点辐角 66.328° 66.377°
升交点赤经 201.662° 198.370°
平近点角 293.872° 114.710°
近地点 454.507km 454.217km
远地点 467.725km 467.743km
周期 93.815分钟 93.812分钟
每日圈数 15.349345 15.349802
详细信息
使用方式:
暂无
2D轨道图
3D轨道图
轨道高度分析图
轨道倾角分析图
轨道综合分析图
查看轨道综合分析图